,,,PA_Meas_PMT16A,,PR_Meas_QMR101_102,,RH_Meas_QMH101,,SR_Meas_QMS101,,TA_Meas_QMH101,,GenWind,,GenWind,
date,time,status,PA,status,PR,status,RH,status,SR,status,TA,status,DirAvg,status,SpdAvg,
2012-03-22, 00:00:05,VALID,1001.11,VALID,0,VALID,94.2868,VALID,0,VALID,23.9549,VALID,3,VALID,0.814844,
2012-03-22, 00:01:05,VALID,1001.07,VALID,0,VALID,94.2868,VALID,0,VALID,23.9549,VALID,356,VALID,0.514844,
2012-03-22, 00:02:05,VALID,1001.05,VALID,0,VALID,94.3097,VALID,0,VALID,23.9549,VALID,356,VALID,0.593359,
2012-03-22, 00:03:05,VALID,1001.05,VALID,0,VALID,94.3326,VALID,0,VALID,23.9744,VALID,356,VALID,0.579297,
2012-03-22, 00:04:05,VALID,1001.04,VALID,0,VALID,94.325,VALID,0,VALID,23.9549,VALID,356,VALID,0.707422,
2012-03-22, 00:05:05,VALID,1001.03,VALID,0,VALID,94.325,VALID,0,VALID,23.9549,VALID,356,VALID,0.832422,
2012-03-22, 00:06:05,VALID,1000.99,VALID,0,VALID,94.3479,VALID,0,VALID,23.9354,VALID,21,VALID,1.01289,
2012-03-22, 00:07:05,VALID,1000.95,VALID,0,VALID,94.3326,VALID,0,VALID,23.9354,VALID,21,VALID,0.830469,
2012-03-22, 00:08:05,VALID,1000.93,VALID,0,VALID,94.3479,VALID,0,VALID,23.9549,VALID,21,VALID,0.872656,
2012-03-22, 00:09:05,VALID,1000.94,VALID,0,VALID,94.386,VALID,0,VALID,23.9354,VALID,21,VALID,0.981641,
2012-03-22, 00:10:04,VALID,1000.93,VALID,0,VALID,94.3555,VALID,0,VALID,23.9354,VALID,21,VALID,1.01289,
2012-03-22, 00:11:04,VALID,1000.92,VALID,0,VALID,94.3555,VALID,0,VALID,23.9159,VALID,21,VALID,0.814062,
2012-03-22, 00:12:04,VALID,1000.9,VALID,0,VALID,94.3555,VALID,0,VALID,23.9159,VALID,21,VALID,0.464844,
2012-03-22, 00:13:04,VALID,1000.9,VALID,0,VALID,94.3937,VALID,0,VALID,23.8945,VALID,21,VALID,0.449219,
2012-03-22, 00:14:04,VALID,1000.87,VALID,0,VALID,94.3937,VALID,0,VALID,23.875,VALID,21,VALID,0.374609,
2012-03-22, 00:15:04,VALID,1000.92,VALID,0,VALID,94.4165,VALID,0,VALID,23.9159,VALID,21,VALID,0.174609,
2012-03-22, 00:16:04,VALID,1000.87,VALID,0,VALID,94.4165,VALID,0,VALID,23.8963,VALID,21,VALID,0,
2012-03-22, 00:17:04,VALID,1000.86,VALID,0,VALID,94.4394,VALID,0,VALID,23.8963,VALID,21,VALID,0,
2012-03-22, 00:18:04,VALID,1000.87,VALID,0,VALID,94.4547,VALID,0,VALID,23.9159,VALID,21,VALID,0,
2012-03-22, 00:19:04,VALID,1000.86,VALID,0,VALID,94.4623,VALID,0,VALID,23.9159,VALID,21,VALID,0,
2012-03-22, 00:20:04,VALID,1000.85,VALID,0,VALID,94.4776,VALID,0,VALID,23.9159,VALID,21,VALID,0,
2012-03-22, 00:21:04,VALID,1000.8,VALID,0,VALID,94.4776,VALID,0,VALID,23.9372,VALID,21,VALID,0,
2012-03-22, 00:22:04,VALID,1000.8,VALID,0,VALID,94.4776,VALID,0,VALID,23.9354,VALID,21,VALID,0,
2012-03-22, 00:23:04,VALID,1000.73,VALID,0,VALID,94.4852,VALID,0,VALID,23.9354,VALID,21,VALID,0,
2012-03-22, 00:24:04,VALID,1000.72,VALID,0,VALID,94.4852,VALID,0,VALID,23.914,VALID,21,VALID,0,
2012-03-22, 00:25:04,VALID,1000.7,VALID,0,VALID,94.4776,VALID,0,VALID,23.9354,VALID,21,VALID,0,
2012-03-22, 00:26:04,VALID,1000.71,VALID,0,VALID,94.4852,VALID,0,VALID,23.914,VALID,21,VALID,0,
2012-03-22, 00:27:04,VALID,1000.7,VALID,0,VALID,94.4852,VALID,0,VALID,23.9336,VALID,21,VALID,0,
2012-03-22, 00:28:04,VALID,1000.68,VALID,0,VALID,94.4776,VALID,0,VALID,23.9336,VALID,21,VALID,0,
2012-03-22, 00:29:04,VALID,1000.66,VALID,0,VALID,94.5081,VALID,0,VALID,23.9336,VALID,21,VALID,0,
2012-03-22, 00:30:04,VALID,1000.64,VALID,0,VALID,94.5157,VALID,0,VALID,23.9549,VALID,21,VALID,0,
2012-03-22, 00:31:04,VALID,1000.65,VALID,0,VALID,94.4852,VALID,0,VALID,23.9549,VALID,21,VALID,0,
2012-03-22, 00:32:04,VALID,1000.63,VALID,0,VALID,94.4928,VALID,0,VALID,23.9549,VALID,21,VALID,0,
2012-03-22, 00:33:04,VALID,1000.61,VALID,0,VALID,94.4852,VALID,0,VALID,23.9549,VALID,21,VALID,0,
2012-03-22, 00:34:04,VALID,1000.62,VALID,0,VALID,94.4776,VALID,0,VALID,23.9549,VALID,21,VALID,0,
2012-03-22, 00:35:04,VALID,1000.63,VALID,0,VALID,94.4776,VALID,0,VALID,23.9549,VALID,21,VALID,0,
2012-03-22, 00:36:04,VALID,1000.59,VALID,0,VALID,94.5005,VALID,0,VALID,23.9549,VALID,21,VALID,0,
2012-03-22, 00:37:04,VALID,1000.59,VALID,0,VALID,94.4928,VALID,0,VALID,23.9549,VALID,21,VALID,0,
2012-03-22, 00:38:04,VALID,1000.57,VALID,0,VALID,94.4928,VALID,0,VALID,23.9549,VALID,21,VALID,0,
2012-03-22, 00:39:04,VALID,1000.57,VALID,0,VALID,94.4852,VALID,0,VALID,23.9336,VALID,21,VALID,0,
2012-03-22, 00:40:04,VALID,1000.54,VALID,0,VALID,94.5081,VALID,0,VALID,23.9744,VALID,21,VALID,0,
2012-03-22, 00:41:04,VALID,1000.53,VALID,0,VALID,94.4928,VALID,0,VALID,23.9531,VALID,21,VALID,0,
2012-03-22, 00:42:04,VALID,1000.53,VALID,0,VALID,94.5081,VALID,0,VALID,23.9744,VALID,21,VALID,0,
2012-03-22, 00:43:04,VALID,1000.51,VALID,0,VALID,94.5081,VALID,0,VALID,23.9744,VALID,21,VALID,0,
2012-03-22, 00:44:04,VALID,1000.52,VALID,0,VALID,94.531,VALID,0,VALID,23.9939,VALID,21,VALID,0,
2012-03-22, 00:45:04,VALID,1000.54,VALID,0,VALID,94.531,VALID,0,VALID,23.9939,VALID,21,VALID,0,
2012-03-22, 00:46:04,VALID,1000.52,VALID,0,VALID,94.5386,VALID,0,VALID,23.9726,VALID,21,VALID,1.4082,
2012-03-22, 00:47:04,VALID,1000.49,VALID,0,VALID,94.5462,VALID,0,VALID,23.9531,VALID,21,VALID,1.50352,
2012-03-22, 00:48:04,VALID,1000.52,VALID,0,VALID,94.5462,VALID,0,VALID,23.9744,VALID,21,VALID,1.36094,
2012-03-22, 00:49:04,VALID,1000.49,VALID,0,VALID,94.5768,VALID,0,VALID,23.9744,VALID,29,VALID,1.15391,
2012-03-22, 00:50:04,VALID,1000.5,VALID,0,VALID,94.5844,VALID,0,VALID,23.9939,VALID,30,VALID,0.625781,
2012-03-22, 00:51:04,VALID,1000.5,VALID,0,VALID,94.6302,VALID,0,VALID,23.9939,VALID,37,VALID,0.531641,
2012-03-22, 00:52:04,VALID,1000.47,VALID,0,VALID,94.6378,VALID,0,VALID,23.9939,VALID,37,VALID,0.617969,
2012-03-22, 00:53:04,VALID,1000.41,VALID,0,VALID,94.6454,VALID,0,VALID,23.9939,VALID,38,VALID,0.672266,
2012-03-22, 00:54:04,VALID,1000.4,VALID,0,VALID,94.6378,VALID,0,VALID,23.9921,VALID,50,VALID,0.845312,
2012-03-22, 00:55:04,VALID,1000.38,VALID,0,VALID,94.6454,VALID,0,VALID,24.0134,VALID,50,VALID,0.967578,
2012-03-22, 00:56:04,VALID,1000.36,VALID,0,VALID,94.6454,VALID,0,VALID,23.9726,VALID,49,VALID,1.03242,
2012-03-22, 00:57:04,VALID,1000.35,VALID,0,VALID,94.6607,VALID,0,VALID,23.9726,VALID,49,VALID,1.00195,
2012-03-22, 00:58:04,VALID,1000.35,VALID,0,VALID,94.6454,VALID,0,VALID,23.9939,VALID,49,VALID,0.933594,
2012-03-22, 00:59:04,VALID,1000.34,VALID,0,VALID,94.6607,VALID,0,VALID,23.9531,VALID,49,VALID,0.813281,
2012-03-22, 01:00:04,VALID,1000.32,VALID,0,VALID,94.6454,VALID,0,VALID,23.9939,VALID,49,VALID,0.910547,
2012-03-22, 01:01:04,VALID,1000.3,VALID,0,VALID,94.6531,VALID,0,VALID,23.9531,VALID,49,VALID,0.805859,
2012-03-22, 01:02:04,VALID,1000.32,VALID,0,VALID,94.6531,VALID,0,VALID,23.9744,VALID,49,VALID,0.626953,
2012-03-22, 01:03:04,VALID,1000.31,VALID,0,VALID,94.6454,VALID,0,VALID,23.9531,VALID,49,VALID,0.752734,
2012-03-22, 01:04:04,VALID,1000.31,VALID,0,VALID,94.6378,VALID,0,VALID,23.9549,VALID,49,VALID,0.654688,
2012-03-22, 01:05:04,VALID,1000.26,VALID,0,VALID,94.6607,VALID,0,VALID,23.9549,VALID,49,VALID,0.24375,
2012-03-22, 01:06:04,VALID,1000.29,VALID,0,VALID,94.6454,VALID,0,VALID,23.9336,VALID,49,VALID,0.5375,
2012-03-22, 01:07:04,VALID,1000.26,VALID,0,VALID,94.6454,VALID,0,VALID,23.9549,VALID,49,VALID,0.396875,
2012-03-22, 01:08:04,VALID,1000.22,VALID,0,VALID,94.6454,VALID,0,VALID,23.9549,VALID,49,VALID,0.241016,
2012-03-22, 01:09:04,VALID,1000.21,VALID,0,VALID,94.6454,VALID,0,VALID,23.9336,VALID,49,VALID,0.0078125,
2012-03-22, 01:10:04,VALID,1000.18,VALID,0,VALID,94.6378,VALID,0,VALID,23.9336,VALID,49,VALID,0,
2012-03-22, 01:11:04,VALID,1000.17,VALID,0,VALID,94.6531,VALID,0,VALID,23.9336,VALID,49,VALID,0,
2012-03-22, 01:12:04,VALID,1000.17,VALID,0,VALID,94.6378,VALID,0,VALID,23.9336,VALID,49,VALID,0,
2012-03-22, 01:13:04,VALID,1000.15,VALID,0,VALID,94.6454,VALID,0,VALID,23.9354,VALID,49,VALID,0,
2012-03-22, 01:14:04,VALID,1000.13,VALID,0,VALID,94.6378,VALID,0,VALID,23.9549,VALID,49,VALID,0,
2012-03-22, 01:15:04,VALID,1000.13,VALID,0,VALID,94.6378,VALID,0,VALID,23.914,VALID,49,VALID,0,
2012-03-22, 01:16:04,VALID,1000.1,VALID,0,VALID,94.6454,VALID,0,VALID,23.9354,VALID,49,VALID,0,
2012-03-22, 01:17:04,VALID,1000.12,VALID,0,VALID,94.6531,VALID,0,VALID,23.9354,VALID,49,VALID,0,
2012-03-22, 01:18:04,VALID,1000.07,VALID,0,VALID,94.6607,VALID,0,VALID,23.9159,VALID,49,VALID,0,
2012-03-22, 01:19:04,VALID,1000.05,VALID,0,VALID,94.6454,VALID,0,VALID,23.8945,VALID,49,VALID,0,
2012-03-22, 01:20:04,VALID,1000.04,VALID,0,VALID,94.6683,VALID,0,VALID,23.9159,VALID,49,VALID,0,
2012-03-22, 01:21:04,VALID,1000.05,VALID,0,VALID,94.6531,VALID,0,VALID,23.914,VALID,49,VALID,0.139453,
2012-03-22, 01:22:04,VALID,1000.04,VALID,0,VALID,94.6912,VALID,0,VALID,23.9354,VALID,49,VALID,0.247266,
2012-03-22, 01:23:04,VALID,1000,VALID,0,VALID,94.676,VALID,0,VALID,23.9354,VALID,49,VALID,0.298047,
2012-03-22, 01:24:04,VALID,1000,VALID,0,VALID,94.7065,VALID,0,VALID,23.9336,VALID,49,VALID,0.015625,
2012-03-22, 01:25:04,VALID,999.972,VALID,0,VALID,94.6988,VALID,0,VALID,23.9336,VALID,49,VALID,0,
2012-03-22, 01:26:04,VALID,999.955,VALID,0,VALID,94.7141,VALID,0,VALID,23.9336,VALID,49,VALID,0,
2012-03-22, 01:27:04,VALID,999.921,VALID,0,VALID,94.7141,VALID,0,VALID,23.9549,VALID,49,VALID,0,
2012-03-22, 01:28:04,VALID,999.931,VALID,0,VALID,94.7294,VALID,0,VALID,23.9744,VALID,49,VALID,0.435937,
2012-03-22, 01:29:04,VALID,999.943,VALID,0,VALID,94.737,VALID,0,VALID,23.9726,VALID,49,VALID,0.645703,
2012-03-22, 01:30:04,VALID,999.91,VALID,0,VALID,94.7446,VALID,0,VALID,24.0134,VALID,155,VALID,0.723828,
2012-03-22, 01:31:04,VALID,999.879,VALID,0,VALID,94.7904,VALID,0,VALID,24.0311,VALID,187,VALID,0.735547,
2012-03-22, 01:32:04,VALID,999.867,VALID,0,VALID,94.7904,VALID,0,VALID,24.0525,VALID,187,VALID,0.628906,
2012-03-22, 01:33:04,VALID,999.869,VALID,0,VALID,94.798,VALID,0,VALID,24.0701,VALID,187,VALID,0.794531,
2012-03-22, 01:34:04,VALID,999.852,VALID,0,VALID,94.8057,VALID,0,VALID,24.0701,VALID,187,VALID,0.564453,
2012-03-22, 01:35:04,VALID,999.836,VALID,0,VALID,94.7904,VALID,0,VALID,24.0701,VALID,187,VALID,0.374219,
2012-03-22, 01:36:04,VALID,999.859,VALID,0,VALID,94.7828,VALID,0,VALID,24.0915,VALID,187,VALID,0.285156,
2012-03-22, 01:37:04,VALID,999.889,VALID,0,VALID,94.7675,VALID,0,VALID,24.111,VALID,187,VALID,0.280859,
2012-03-22, 01:38:04,VALID,999.859,VALID,0,VALID,94.7523,VALID,0,VALID,24.0897,VALID,158,VALID,0.559375,
2012-03-22, 01:39:04,VALID,999.861,VALID,0,VALID,94.7141,VALID,0,VALID,24.0701,VALID,76,VALID,0.635547,
2012-03-22, 01:40:04,VALID,999.831,VALID,0,VALID,94.6912,VALID,0,VALID,24.0897,VALID,76,VALID,0.595312,
2012-03-22, 01:41:04,VALID,999.838,VALID,0,VALID,94.6607,VALID,0,VALID,24.0701,VALID,76,VALID,0.685938,
2012-03-22, 01:42:04,VALID,999.797,VALID,0,VALID,94.6531,VALID,0,VALID,24.0915,VALID,65,VALID,0.857813,
2012-03-22, 01:43:04,VALID,999.829,VALID,0,VALID,94.6378,VALID,0,VALID,24.072,VALID,63,VALID,0.844141,
2012-03-22, 01:44:04,VALID,999.801,VALID,0,VALID,94.6073,VALID,0,VALID,24.0506,VALID,38,VALID,0.937109,
2012-03-22, 01:45:04,VALID,999.797,VALID,0,VALID,94.5768,VALID,0,VALID,24.0329,VALID,37,VALID,0.78125,
2012-03-22, 01:46:04,VALID,999.813,VALID,0,VALID,94.5615,VALID,0,VALID,24.0329,VALID,37,VALID,0.789844,
2012-03-22, 01:47:04,VALID,999.803,VALID,0,VALID,94.5539,VALID,0,VALID,24.0134,VALID,37,VALID,0.84375,
2012-03-22, 01:48:04,VALID,999.782,VALID,0,VALID,94.5386,VALID,0,VALID,23.9744,VALID,37,VALID,0.737891,
2012-03-22, 01:49:04,VALID,999.824,VALID,0,VALID,94.5234,VALID,0,VALID,23.9531,VALID,37,VALID,0.673437,
2012-03-22, 01:50:04,VALID,999.75,VALID,0,VALID,94.5462,VALID,0,VALID,23.9336,VALID,37,VALID,0.594141,
2012-03-22, 01:51:04,VALID,999.756,VALID,0,VALID,94.5462,VALID,0,VALID,23.914,VALID,37,VALID,0.630859,
2012-03-22, 01:52:04,VALID,999.752,VALID,0,VALID,94.5768,VALID,0,VALID,23.914,VALID,37,VALID,0.314063,
2012-03-22, 01:53:04,VALID,999.731,VALID,0,VALID,94.592,VALID,0,VALID,23.9159,VALID,37,VALID,0.584375,
2012-03-22, 01:54:04,VALID,999.737,VALID,0,VALID,94.5997,VALID,0,VALID,23.875,VALID,48,VALID,0.832422,
2012-03-22, 01:55:04,VALID,999.721,VALID,0,VALID,94.6378,VALID,0,VALID,23.8945,VALID,48,VALID,0.820703,
2012-03-22, 01:56:04,VALID,999.721,VALID,0,VALID,94.6454,VALID,0,VALID,23.9159,VALID,48,VALID,0.696875,
2012-03-22, 01:57:04,VALID,999.721,VALID,0,VALID,94.6531,VALID,0,VALID,23.8963,VALID,48,VALID,0.748438,
2012-03-22, 01:58:04,VALID,999.717,VALID,0,VALID,94.6836,VALID,0,VALID,23.9159,VALID,48,VALID,0.7125,
2012-03-22, 01:59:04,VALID,999.734,VALID,0,VALID,94.6912,VALID,0,VALID,23.875,VALID,48,VALID,0.710938,
2012-03-22, 02:00:04,VALID,999.721,VALID,0,VALID,94.6836,VALID,0,VALID,23.8963,VALID,48,VALID,0.523047,
2012-03-22, 02:01:04,VALID,999.722,VALID,0,VALID,94.6912,VALID,0,VALID,23.8768,VALID,48,VALID,0.231641,
2012-03-22, 02:02:04,VALID,999.731,VALID,0,VALID,94.676,VALID,0,VALID,23.8555,VALID,48,VALID,0.3375,
2012-03-22, 02:03:04,VALID,999.729,VALID,0,VALID,94.6988,VALID,0,VALID,23.836,VALID,48,VALID,0.255078,
2012-03-22, 02:04:04,VALID,999.713,VALID,0,VALID,94.6836,VALID,0,VALID,23.8573,VALID,48,VALID,0.391406,
2012-03-22, 02:05:04,VALID,999.733,VALID,0,VALID,94.7141,VALID,0,VALID,23.8378,VALID,48,VALID,0.249609,
2012-03-22, 02:06:04,VALID,999.695,VALID,0,VALID,94.6988,VALID,0,VALID,23.8165,VALID,48,VALID,0.466406,
2012-03-22, 02:07:04,VALID,999.693,VALID,0,VALID,94.7217,VALID,0,VALID,23.8183,VALID,48,VALID,0.423438,
2012-03-22, 02:08:04,VALID,999.698,VALID,0,VALID,94.7294,VALID,0,VALID,23.8183,VALID,48,VALID,0.496875,
2012-03-22, 02:09:04,VALID,999.665,VALID,0,VALID,94.7446,VALID,0,VALID,23.8183,VALID,48,VALID,0.480469,
2012-03-22, 02:10:04,VALID,999.667,VALID,0,VALID,94.7599,VALID,0,VALID,23.7988,VALID,48,VALID,0.332812,
2012-03-22, 02:11:04,VALID,999.648,VALID,0,VALID,94.7751,VALID,0,VALID,23.797,VALID,48,VALID,0.100781,
2012-03-22, 02:12:04,VALID,999.631,VALID,0,VALID,94.7751,VALID,0,VALID,23.8183,VALID,48,VALID,0,
2012-03-22, 02:13:04,VALID,999.635,VALID,0,VALID,94.8057,VALID,0,VALID,23.8183,VALID,48,VALID,0,
2012-03-22, 02:14:04,VALID,999.573,VALID,0,VALID,94.8133,VALID,0,VALID,23.8183,VALID,48,VALID,0,
2012-03-22, 02:15:04,VALID,999.579,VALID,0,VALID,94.8209,VALID,0,VALID,23.8165,VALID,48,VALID,0.09375,
2012-03-22, 02:16:04,VALID,999.584,VALID,0,VALID,94.8362,VALID,0,VALID,23.836,VALID,48,VALID,0,
2012-03-22, 02:17:04,VALID,999.545,VALID,0,VALID,94.8362,VALID,0,VALID,23.836,VALID,48,VALID,0,
2012-03-22, 02:18:04,VALID,999.57,VALID,0,VALID,94.8743,VALID,0,VALID,23.836,VALID,48,VALID,0,
2012-03-22, 02:19:04,VALID,999.556,VALID,0,VALID,94.8514,VALID,0,VALID,23.8573,VALID,48,VALID,0,
2012-03-22, 02:20:04,VALID,999.569,VALID,0,VALID,94.8743,VALID,0,VALID,23.8573,VALID,48,VALID,0,
2012-03-22, 02:21:04,VALID,999.532,VALID,0,VALID,94.8743,VALID,0,VALID,23.8555,VALID,48,VALID,0,
2012-03-22, 02:22:04,VALID,999.546,VALID,0,VALID,94.8591,VALID,0,VALID,23.8555,VALID,48,VALID,0,
2012-03-22, 02:23:04,VALID,999.514,VALID,0,VALID,94.8743,VALID,0,VALID,23.8555,VALID,48,VALID,0.375391,
2012-03-22, 02:24:04,VALID,999.504,VALID,0,VALID,94.8514,VALID,0,VALID,23.8573,VALID,48,VALID,0.3875,
2012-03-22, 02:25:04,VALID,999.551,VALID,0,VALID,94.8667,VALID,0,VALID,23.8573,VALID,48,VALID,0.257422,
2012-03-22, 02:26:04,VALID,999.504,VALID,0,VALID,94.8514,VALID,0,VALID,23.8573,VALID,48,VALID,0.216016,
2012-03-22, 02:27:04,VALID,999.502,VALID,0,VALID,94.8514,VALID,0,VALID,23.8378,VALID,48,VALID,0,
2012-03-22, 02:28:04,VALID,999.484,VALID,0,VALID,94.8285,VALID,0,VALID,23.8165,VALID,48,VALID,0,
2012-03-22, 02:29:04,VALID,999.527,VALID,0,VALID,94.8362,VALID,0,VALID,23.8378,VALID,48,VALID,0.104687,
2012-03-22, 02:30:04,VALID,999.519,VALID,0,VALID,94.8362,VALID,0,VALID,23.8183,VALID,48,VALID,0.353906,
2012-03-22, 02:31:04,VALID,999.541,VALID,0,VALID,94.8209,VALID,0,VALID,23.8378,VALID,48,VALID,0.380859,
2012-03-22, 02:32:04,VALID,999.538,VALID,0,VALID,94.8438,VALID,0,VALID,23.8165,VALID,48,VALID,0.403906,
2012-03-22, 02:33:04,VALID,999.527,VALID,0,VALID,94.8285,VALID,0,VALID,23.8183,VALID,48,VALID,0.410156,
2012-03-22, 02:34:04,VALID,999.527,VALID,0,VALID,94.8362,VALID,0,VALID,23.8378,VALID,48,VALID,0.163281,
2012-03-22, 02:35:04,VALID,999.496,VALID,0,VALID,94.8591,VALID,0,VALID,23.8378,VALID,48,VALID,0,
2012-03-22, 02:36:04,VALID,999.492,VALID,0,VALID,94.8514,VALID,0,VALID,23.8378,VALID,48,VALID,0,
2012-03-22, 02:37:04,VALID,999.487,VALID,0,VALID,94.8591,VALID,0,VALID,23.8183,VALID,48,VALID,0,
2012-03-22, 02:38:04,VALID,999.482,VALID,0,VALID,94.8514,VALID,0,VALID,23.797,VALID,48,VALID,0.145313,
2012-03-22, 02:39:04,VALID,999.447,VALID,0,VALID,94.8514,VALID,0,VALID,23.797,VALID,48,VALID,0.339844,
2012-03-22, 02:40:04,VALID,999.496,VALID,0,VALID,94.8591,VALID,0,VALID,23.8183,VALID,48,VALID,0.162109,
2012-03-22, 02:41:04,VALID,999.483,VALID,0,VALID,94.8438,VALID,0,VALID,23.797,VALID,48,VALID,0,
2012-03-22, 02:42:04,VALID,999.461,VALID,0,VALID,94.8743,VALID,0,VALID,23.7775,VALID,48,VALID,0,
2012-03-22, 02:43:04,VALID,999.459,VALID,0,VALID,94.882,VALID,0,VALID,23.8183,VALID,48,VALID,0,
2012-03-22, 02:44:04,VALID,999.435,VALID,0,VALID,94.8743,VALID,0,VALID,23.7775,VALID,48,VALID,0,
2012-03-22, 02:45:04,VALID,999.441,VALID,0,VALID,94.882,VALID,0,VALID,23.7988,VALID,48,VALID,0.496875,
2012-03-22, 02:46:04,VALID,999.446,VALID,0,VALID,94.8743,VALID,0,VALID,23.7988,VALID,48,VALID,0.445703,
2012-03-22, 02:47:04,VALID,999.443,VALID,0,VALID,94.9125,VALID,0,VALID,23.7988,VALID,48,VALID,0.378906,
2012-03-22, 02:48:04,VALID,999.441,VALID,0,VALID,94.8667,VALID,0,VALID,23.7775,VALID,48,VALID,0.363672,
2012-03-22, 02:49:04,VALID,999.426,VALID,0,VALID,94.8972,VALID,0,VALID,23.7775,VALID,48,VALID,0.336719,
2012-03-22, 02:50:04,VALID,999.458,VALID,0,VALID,94.9201,VALID,0,VALID,23.7793,VALID,48,VALID,0.3875,
2012-03-22, 02:51:04,VALID,999.409,VALID,0,VALID,94.9125,VALID,0,VALID,23.7793,VALID,48,VALID,0.513672,
2012-03-22, 02:52:04,VALID,999.418,VALID,0,VALID,94.9125,VALID,0,VALID,23.7775,VALID,48,VALID,0.607813,
2012-03-22, 02:53:04,VALID,999.418,VALID,0,VALID,94.9277,VALID,0,VALID,23.7579,VALID,48,VALID,0.551562,
2012-03-22, 02:54:04,VALID,999.398,VALID,0,VALID,94.9201,VALID,0,VALID,23.7579,VALID,48,VALID,0.436719,
2012-03-22, 02:55:04,VALID,999.409,VALID,0,VALID,94.943,VALID,0,VALID,23.7579,VALID,48,VALID,0.379297,
2012-03-22, 02:56:04,VALID,999.432,VALID,0,VALID,94.943,VALID,0,VALID,23.7384,VALID,48,VALID,0.0910156,
2012-03-22, 02:57:04,VALID,999.413,VALID,0,VALID,94.9125,VALID,0,VALID,23.7384,VALID,48,VALID,0,
2012-03-22, 02:58:04,VALID,999.402,VALID,0,VALID,94.9354,VALID,0,VALID,23.7402,VALID,48,VALID,0,
2012-03-22, 02:59:04,VALID,999.405,VALID,0,VALID,94.9125,VALID,0,VALID,23.7207,VALID,48,VALID,0,
2012-03-22, 03:00:04,VALID,999.412,VALID,0,VALID,94.8972,VALID,0,VALID,23.6994,VALID,48,VALID,0,
2012-03-22, 03:01:04,VALID,999.396,VALID,0,VALID,94.9048,VALID,0,VALID,23.7012,VALID,48,VALID,0,
2012-03-22, 03:02:04,VALID,999.381,VALID,0,VALID,94.9125,VALID,0,VALID,23.7012,VALID,48,VALID,0,
2012-03-22, 03:03:04,VALID,999.377,VALID,0,VALID,94.9277,VALID,0,VALID,23.6799,VALID,48,VALID,0,
2012-03-22, 03:04:04,VALID,999.385,VALID,0,VALID,94.9354,VALID,0,VALID,23.6799,VALID,48,VALID,0,
2012-03-22, 03:05:04,VALID,999.383,VALID,0,VALID,94.9354,VALID,0,VALID,23.6799,VALID,48,VALID,0,
2012-03-22, 03:06:04,VALID,999.389,VALID,0,VALID,94.943,VALID,0,VALID,23.6817,VALID,48,VALID,0,
2012-03-22, 03:07:04,VALID,999.361,VALID,0,VALID,94.9506,VALID,0,VALID,23.7012,VALID,48,VALID,0,
2012-03-22, 03:08:04,VALID,999.393,VALID,0,VALID,94.9659,VALID,0,VALID,23.6799,VALID,48,VALID,0.0183594,
2012-03-22, 03:09:04,VALID,999.389,VALID,0,VALID,95.004,VALID,0,VALID,23.6994,VALID,48,VALID,0.385938,
2012-03-22, 03:10:04,VALID,999.426,VALID,0,VALID,94.9888,VALID,0,VALID,23.7189,VALID,48,VALID,0.464844,
2012-03-22, 03:11:04,VALID,999.394,VALID,0,VALID,94.9964,VALID,0,VALID,23.7597,VALID,48,VALID,0.669141,
2012-03-22, 03:12:04,VALID,999.424,VALID,0,VALID,95.004,VALID,0,VALID,23.7402,VALID,30,VALID,0.812109,
2012-03-22, 03:13:04,VALID,999.421,VALID,0,VALID,94.9888,VALID,0,VALID,23.6994,VALID,28,VALID,0.85625,
2012-03-22, 03:14:04,VALID,999.43,VALID,0,VALID,94.9888,VALID,0,VALID,23.6799,VALID,28,VALID,0.715234,
2012-03-22, 03:15:04,VALID,999.448,VALID,0,VALID,94.9811,VALID,0,VALID,23.6799,VALID,28,VALID,0.529297,
2012-03-22, 03:16:04,VALID,999.47,VALID,0,VALID,94.9964,VALID,0,VALID,23.6799,VALID,28,VALID,0.316797,
2012-03-22, 03:17:04,VALID,999.456,VALID,0,VALID,94.9811,VALID,0,VALID,23.6799,VALID,28,VALID,0,
2012-03-22, 03:18:04,VALID,999.444,VALID,0,VALID,95.0117,VALID,0.104696,VALID,23.6799,VALID,28,VALID,0.135547,
2012-03-22, 03:19:04,VALID,999.434,VALID,0,VALID,95.0117,VALID,0,VALID,23.6799,VALID,28,VALID,0.490625,
2012-03-22, 03:20:04,VALID,999.444,VALID,0,VALID,95.0345,VALID,0,VALID,23.6799,VALID,28,VALID,0.587891,
2012-03-22, 03:21:04,VALID,999.425,VALID,0,VALID,95.0117,VALID,0,VALID,23.6799,VALID,28,VALID,0.628906,
2012-03-22, 03:22:04,VALID,999.456,VALID,0,VALID,94.9964,VALID,0,VALID,23.7012,VALID,28,VALID,0.710547,
2012-03-22, 03:23:04,VALID,999.485,VALID,0,VALID,95.0193,VALID,0,VALID,23.6817,VALID,28,VALID,0.433594,
2012-03-22, 03:24:04,VALID,999.497,VALID,0,VALID,94.9964,VALID,0,VALID,23.6622,VALID,28,VALID,0.329297,
2012-03-22, 03:25:04,VALID,999.5,VALID,0,VALID,95.0117,VALID,0,VALID,23.6817,VALID,28,VALID,0.398047,
2012-03-22, 03:26:04,VALID,999.511,VALID,0,VALID,95.0269,VALID,0,VALID,23.6604,VALID,28,VALID,0.525781,
2012-03-22, 03:27:04,VALID,999.515,VALID,0,VALID,95.0345,VALID,0,VALID,23.6817,VALID,61,VALID,0.857031,
2012-03-22, 03:28:04,VALID,999.557,VALID,0,VALID,95.0498,VALID,0,VALID,23.6817,VALID,61,VALID,0.574219,
2012-03-22, 03:29:04,VALID,999.547,VALID,0,VALID,95.0193,VALID,0,VALID,23.6817,VALID,60,VALID,0.565234,
2012-03-22, 03:30:04,VALID,999.577,VALID,0,VALID,95.0345,VALID,0,VALID,23.6817,VALID,1,VALID,1.03437,
2012-03-22, 03:31:04,VALID,999.567,VALID,0,VALID,95.0574,VALID,0,VALID,23.7012,VALID,358,VALID,1.46953,
2012-03-22, 03:32:04,VALID,999.627,VALID,0,VALID,95.0651,VALID,0,VALID,23.6817,VALID,6,VALID,0.932031,
2012-03-22, 03:33:04,VALID,999.609,VALID,0,VALID,95.0727,VALID,0,VALID,23.7012,VALID,6,VALID,0.598828,
2012-03-22, 03:34:04,VALID,999.632,VALID,0,VALID,95.0498,VALID,0,VALID,23.6799,VALID,12,VALID,0.667188,
2012-03-22, 03:35:04,VALID,999.632,VALID,0,VALID,95.0574,VALID,0,VALID,23.6994,VALID,45,VALID,0.751562,
2012-03-22, 03:36:04,VALID,999.61,VALID,0,VALID,95.0727,VALID,0,VALID,23.7207,VALID,41,VALID,1.34766,
2012-03-22, 03:37:04,VALID,999.613,VALID,0,VALID,95.0803,VALID,0,VALID,23.7189,VALID,51,VALID,1.03242,
2012-03-22, 03:38:04,VALID,999.631,VALID,0,VALID,95.0956,VALID,0,VALID,23.7384,VALID,45,VALID,1.03359,
2012-03-22, 03:39:04,VALID,999.629,VALID,0,VALID,95.0803,VALID,0,VALID,23.7597,VALID,47,VALID,1.29062,
2012-03-22, 03:40:04,VALID,999.608,VALID,0,VALID,95.088,VALID,0,VALID,23.7597,VALID,42,VALID,0.622266,
2012-03-22, 03:41:04,VALID,999.601,VALID,0,VALID,95.0727,VALID,0,VALID,23.7793,VALID,37,VALID,0.758984,
2012-03-22, 03:42:04,VALID,999.644,VALID,0,VALID,95.0498,VALID,0,VALID,23.7597,VALID,28,VALID,0.829687,
2012-03-22, 03:43:04,VALID,999.615,VALID,0,VALID,95.0651,VALID,0,VALID,23.7597,VALID,28,VALID,0.592578,
2012-03-22, 03:44:04,VALID,999.555,VALID,0,VALID,95.0345,VALID,0,VALID,23.7384,VALID,28,VALID,0.731641,
2012-03-22, 03:45:04,VALID,999.575,VALID,0,VALID,95.0269,VALID,0,VALID,23.7384,VALID,28,VALID,0.173828,
2012-03-22, 03:46:04,VALID,999.562,VALID,0,VALID,95.0117,VALID,0,VALID,23.7597,VALID,28,VALID,0.516406,
2012-03-22, 03:47:04,VALID,999.555,VALID,0,VALID,95.004,VALID,0,VALID,23.7402,VALID,28,VALID,0.544141,
2012-03-22, 03:48:04,VALID,999.554,VALID,0,VALID,94.9964,VALID,0,VALID,23.7189,VALID,28,VALID,0.173828,
2012-03-22, 03:49:04,VALID,999.567,VALID,0,VALID,94.9888,VALID,0,VALID,23.7402,VALID,28,VALID,0.130469,
2012-03-22, 03:50:04,VALID,999.538,VALID,0,VALID,94.9811,VALID,0,VALID,23.7189,VALID,28,VALID,0.0582031,
2012-03-22, 03:51:04,VALID,999.585,VALID,0,VALID,94.9964,VALID,0,VALID,23.7207,VALID,28,VALID,0,